Location: Mason
(37.5237°N, 89.2543°W)
Time: 08:19:46
(UTC+00:00)

NOAA 12 - Pass Details

Date: 24 January 2021
Orbit: 796 x 814 km, 98.5° (Epoch: 08 March)

Event Time Altitude Azimuth Distance (km) Brightness Sun altitude
Rises 12:18:34 0° 12° (NNE) 3,326 7.3 -9.7°
Reaches altitude 10° 12:20:55 10° 12° (NNE) 2,394 6.5 -9.2°
Maximum altitude 12:26:13 85° 284° (WNW) 817 4.1 -8.2°
Drops below altitude 10° 12:31:31 10° 197° (SSW) 2,389 6.6 -7.2°
Sets 12:33:50 0° 196° (SSW) 3,318 7.3 -6.8°
